This is the latest recevied weather packets stored in our database for station/object Sauldorf. If no packets are shown the sender has not sent any weather packets the latest 10 day(s).
| Time | Temp. | Humidity | Pressure | Rain* | Wind** | Luminosity | Snow |
|---|---|---|---|---|---|---|---|
| 1777651330 | 21.11° C | 26% | 1022.9 hPa | 0 mm | - | - | - |
| 1777649530 | 21.11° C | 27% | 1023.2 hPa | 0 mm | - | - | - |
| 1777647730 | 21.11° C | 27% | 1023.6 hPa | 0 mm | - | - | - |
| 1777645930 | 21.11° C | 27% | 1023.7 hPa | 0 mm | - | - | - |
| 1777644130 | 20.56° C | 26% | 1023.9 hPa | 0 mm | - | - | - |
| 1777642330 | 20.56° C | 28% | 1024.2 hPa | 0 mm | - | - | - |
| 1777640531 | 20° C | 28% | 1024.5 hPa | 0 mm | - | - | - |
| 1777638736 | 19.44° C | 30% | 1024.8 hPa | 0 mm | - | - | - |
| 1777636931 | 18.89° C | 32% | 1025 hPa | 0 mm | - | - | - |
| 1777635130 | 18.33° C | 34% | 1025.2 hPa | 0 mm | - | - | - |
| 1777633331 | 16.67° C | 36% | 1025.6 hPa | 0 mm | - | - | - |
| 1777631531 | 16.11° C | 41% | 1025.8 hPa | 0 mm | - | - | - |
| 1777629731 | 15° C | 41% | 1026 hPa | 0 mm | - | - | - |
| 1777627930 | 14.44° C | 42% | 1026 hPa | 0 mm | - | - | - |
| 1777626132 | 13.33° C | 43% | 1026 hPa | 0 mm | - | - | - |
| 1777624331 | 11.67° C | 43% | 1026 hPa | 0 mm | - | - | - |
| 1777622532 | 10.56° C | 44% | 1025.9 hPa | 0 mm | - | - | - |
| 1777620733 | 9.44° C | 45% | 1025.9 hPa | 0 mm | - | - | - |
| 1777618930 | 8.33° C | 46% | 1026 hPa | 0 mm | - | - | - |
| 1777617131 | 7.22° C | 48% | 1025.8 hPa | 0 mm | - | - | - |
| 1777615333 | 6.11° C | 50% | 1025.5 hPa | 0 mm | - | - | - |
| 1777613531 | 5.56° C | 51% | 1025.4 hPa | 0 mm | - | - | - |
| 1777611731 | 3.89° C | 53% | 1025.2 hPa | 0 mm | - | - | - |
| 1777609931 | 3.89° C | 53% | 1024.9 hPa | 0 mm | - | - | - |
| 1777608131 | 4.44° C | 51% | 1024.9 hPa | 0 mm | - | - | - |
* Rain since midnight (hover to see other rain measurements)
** Current wind speed in m/s (hover to see current wind gust speed)